Showing default

COSMOS 2211, 22182

Orbit data source: Space-Track

COSMOS 2211, 22182 is a payload satellite owned by VKS (CIS) in LEO that was launched on Tue, 20 Oct 1992 UTC via a TSIKLON-3 launch vehicle from the Plesetsk Missile And Space Complex (PKMTR). Payload-class satellites include a variety of spacecraft equipped with specific instruments for various scientific and technological missions. These include communications satellites like Starlink; space stations such as the ISS; scientific satellites like the Hubble; Earth observation satellites from companies like Planet Labs, Umbra, and HawkEye 360; GPS; miniature CubeSats for education and research; and military/defense satellites.

Loading next visibility...
Identifier
22182, 1992-068A
Orbit
LEO
Last TLE update
17 hours ago
Origin
Manufacturer
NPO PM
Mission
Defense Communications
Bus & Motor
STRELA-3, Unknown motor
Mass
225 kg wet, 225 kg dry
Launch date (UTC)
1992-10-20 (33 years ago)
Launch vehicle
TSIKLON-3
Launch site
Plesetsk Missile And Space Complex (PKMTR)
Object type
Payload
Rocket body
Debris
Shape & HBR
Cyl, 0.8 m
Radar Cross Section
1.257 m², Large (>1 m²)

Expand to show TLE details & history

TLE from 17 hours ago
0 COSMOS 2211
1 22182U 92068A   25199.43007597  .00000034  00000-0  12581-3 0  9998
2 22182  82.5956 174.6486 0007318 179.2611 297.6603 12.64055004510572
Epoch: 2025-07-18T10:19Z
TLE epoch observation values (Epoch: 2025-07-18T10:19:18.563Z)
Latitude
62.30922°
Longitude
-110.92511°
Altitude
1,414.259 km
Speed
7.16 km/s
True Right ascension
22h 41m 32s
True Declination
62° 10' 46"
Sunlit
Object was in daylight at epoch
Visualization orbit readout
Latitude
73.21885°
Longitude
-122.50613°
Altitude
1,417.11 km
Speed
7.159 km/s
Apparent Right ascension
02h 28m 19s
Apparent Declination
32° 38' 08"
Sunlit
Object is in daylight
Visualization observer readout
Local Sidereal Time
16:09:39
Azimuth
21.775° NNE
Elevation
-13.753°
Doppler factor
1
Orbital elements
Apogee altitude
1,409.264 km
Perigee altitude
1,397.875 km
Semi-major axis
7,781.707 km
Eccentricity
0.00073
Inclination
82.5956°
RAAN
174.6486°
Arg. of periapsis
179.2611°
True anomaly
297.58599°
Mean anomaly
297.6603°
Eccentric anomaly
297.62315°
Mean motion
3.16177 °/min
Orbital period
113.86 mins
BSTAR
0.00012581
Loading maneuver chart data...
Loading SW <> Apogee altitude chart data...
Loading historical data...
Loading historical data...
Loading historical data...
Loading historical data...
Loading historical data...
Loading historical data...
Loading historical data...
|